Tracking 31027 objects as of 19-Jul-2025
HD Live streaming from Space Station
objects crossing your sky now

SL-16 R/B DEB

Track SL-16 R/B DEB now!
10-day predictions


NORAD ID: 39721
Int'l Code: 1992-093KM
Perigee: 822.0 km
Apogee: 1,008.7 km
Inclination: 71.2 °
Period: 103.2 minutes
Semi major axis: 7286 km
RCS: Unknown
Launch date: December 25, 1992
Source: Commonwealth of Independent States (former USSR) (CIS)
Launch site: TYURATAM MISSILE AND SPACE COMPLEX (TTMTR)

Note: This is SATELLITE DEBRIS
Your satellite tracking list
FENGYUN 1C DEB
Track 1 satellite(s)




NASA's NSSDC Master Catalog

Two Line Element Set (TLE):
1 39721U 92093KM  25199.32141540  .00000258  00000-0  20678-3 0  9992
2 39721  71.1914 174.4015 0128088 310.9389  48.0692 13.95850426572791
Source of the keplerian elements: AFSPC